Wind_Speed
17 18 19 20 20 20 21 22 21 19 18 17 19 20 18 17 17 18 17 17 17 16 15 14 12 10 9 8 7 6 6 7 7 8 9 9 10 11 12 12 12 12 12 11
18 19 21 20 20 21 22 22 22 21 18 19 21 20 19 18 18 18 18 18 18 17 16 15 13 12 11 9 8 7 7 7 7 8 9 10 11 11 12 12 13 13 12 12
19 21 21 20 19 22 22 22 22 20 19 21 21 20 19 18 18 18 19 19 19 18 17 16 15 14 12 11 10 8 8 7 8 8 9 10 10 11 12 12 13 13 13 13
21 21 22 19 20 21 22 21 22 22 21 22 22 21 19 18 18 19 19 19 19 19 19 18 16 15 14 13 11 10 9 9 8 9 9 10 10 11 12 13 13 14 14 14
24 25 23 21 22 22 21 22 23 23 23 23 22 20 20 20 20 20 20 19 20 19 19 19 18 17 16 15 13 12 11 10 9 9 10 10 11 12 12 13 14 14 14 15
28 28 27 24 24 23 23 24 24 25 25 24 23 22 22 23 22 22 21 21 21 21 20 20 19 18 18 16 15 14 13 12 11 11 11 11 12 12 13 14 14 15 15 15
30 31 30 29 28 26 26 26 26 26 26 26 25 25 24 25 24 23 23 23 22 22 22 22 21 20 19 18 17 16 15 14 14 13 12 12 13 13 14 14 15 15 15 16
33 33 33 32 31 31 30 29 28 28 28 28 28 27 26 26 26 26 25 25 24 24 23 23 23 22 21 20 19 18 17 16 16 15 15 14 14 14 15 15 15 16 16 17
35 36 36 35 35 34 33 32 31 31 31 31 30 30 29 29 29 28 27 27 27 26 25 25 25 24 23 22 21 20 19 19 18 17 17 16 16 16 16 16 17 17 18 18
38 37 38 39 39 39 38 36 35 35 34 34 33 33 32 32 32 31 30 29 29 28 28 27 27 27 26 25 24 23 22 21 20 20 19 19 18 18 18 18 19 19 20 21
41 40 41 42 43 43 42 41 40 39 38 38 36 36 35 35 35 34 33 32 31 31 30 30 30 29 28 27 26 26 25 24 23 22 22 21 21 21 21 21 21 21 22 23
43 43 44 44 45 46 46 45 44 43 42 42 41 39 38 38 37 37 36 35 34 33 33 32 32 31 30 30 29 28 27 26 26 25 24 24 23 23 23 23 23 24 24 25
47 46 46 46 47 49 49 49 48 48 47 46 45 44 42 41 40 39 38 37 36 35 35 35 34 33 33 32 31 30 30 29 28 27 27 26 26 25 25 25 26 26 27 27
49 50 49 49 49 50 51 51 51 51 51 50 49 48 47 45 44 42 41 40 39 38 38 38 37 36 35 34 33 32 32 31 30 30 29 29 28 28 28 28 28 28 29 30
52 52 52 51 51 51 52 52 53 53 53 53 53 53 51 50 48 47 45 44 42 41 40 40 39 38 37 36 35 34 33 33 32 32 31 31 31 31 30 30 30 31 31 32
54 54 54 53 53 52 52 52 53 53 54 55 56 56 55 54 52 50 49 47 45 43 42 41 41 40 39 38 37 36 35 34 34 33 33 33 33 33 33 33 33 33 33 34
54 54 54 53 53 52 51 52 52 53 54 54 56 57 58 57 56 54 52 51 49 47 45 44 43 42 41 40 39 38 37 36 35 35 35 35 35 35 35 35 35 35 36 36
54 53 53 52 52 51 50 50 51 51 53 54 55 56 57 59 58 57 55 54 53 51 49 47 45 44 43 42 41 40 39 38 37 37 37 36 36 37 37 37 37 37 38 38
51 51 50 49 50 50 49 48 49 50 50 52 53 54 56 58 58 58 58 56 55 53 50 49 47 46 45 44 43 42 41 40 40 39 39 39 39 39 39 39 39 39 40 40
49 48 48 47 47 47 47 46 47 47 48 49 50 52 53 55 57 58 58 57 56 55 53 52 50 49 47 46 45 44 43 42 42 41 41 41 41 40 40 41 41 41 42 42
46 46 46 45 44 44 44 44 44 44 45 46 47 48 50 53 55 57 58 58 57 58 57 55 53 51 50 48 46 46 45 44 44 43 43 43 43 42 42 43 43 43 44 44
43 43 43 42 41 40 40 41 42 42 42 43 43 44 47 49 52 55 57 57 57 58 58 57 55 53 51 49 48 48 47 46 46 45 45 45 44 44 44 44 45 45 45 45
42 41 40 40 40 39 38 38 38 39 39 39 40 41 42 44 47 50 54 55 56 57 58 57 56 54 53 52 51 50 49 48 48 47 47 46 46 46 46 46 46 46 46 46
40 39 39 38 38 38 37 36 37 37 38 37 38 39 40 41 42 45 49 53 55 55 56 57 56 55 54 53 52 51 50 50 49 49 48 48 47 47 47 47 47 47 47 46
39 38 38 37 36 36 36 35 35 35 35 35 35 37 37 38 39 41 44 48 51 54 55 56 57 56 55 54 53 52 52 51 50 50 49 49 48 48 48 48 47 47 47 46
37 36 35 36 35 34 34 33 33 33 33 33 32 33 34 35 36 38 40 44 48 50 52 54 55 55 55 53 53 52 51 50 50 50 49 48 48 48 48 47 47 47 46 45
35 34 34 33 33 33 33 32 31 31 31 31 30 30 32 32 33 35 37 41 45 47 49 51 52 53 53 53 53 52 51 51 50 50 49 49 48 47 46 46 46 46 45 44
Wind_Direction
268 268 269 269 271 273 274 274 274 270 265 262 261 261 258 255 250 245 239 235 233 232 234 237 241 247 255 267 283 301 315 328 339 346 350 351 350 348 347 345 341 338 335 332
271 272 272 271 271 272 273 273 272 269 265 259 257 259 259 256 251 245 239 236 234 234 235 237 240 245 251 261 273 288 302 313 325 335 341 346 347 346 345 344 342 339 334 330
276 274 274 274 273 272 272 271 269 267 261 255 255 257 257 254 250 244 240 238 237 236 236 238 241 244 249 256 265 275 287 300 311 321 330 336 340 343 344 343 342 340 336 332
281 276 275 277 271 269 270 268 265 263 258 255 254 254 254 253 247 242 240 239 238 238 238 240 242 244 246 252 259 267 276 288 300 310 319 327 332 335 337 339 339 338 336 333
281 279 277 275 273 269 267 264 261 259 256 254 254 253 252 249 245 241 239 238 238 239 239 241 243 244 245 249 255 262 269 278 289 299 307 316 323 328 331 333 335 335 334 332
279 278 278 276 272 270 267 263 262 259 255 253 252 250 248 247 245 241 239 238 239 240 240 241 243 244 246 248 253 259 265 272 280 288 297 306 313 319 324 327 330 331 331 330
276 276 276 275 272 269 264 263 261 259 257 254 253 251 248 246 244 242 239 238 239 240 241 242 243 245 246 248 252 257 262 268 274 281 289 298 305 311 316 321 325 327 328 328
273 272 272 273 271 268 266 264 260 258 257 255 254 252 249 246 243 241 240 239 239 240 242 243 243 244 246 248 252 256 260 264 269 276 282 290 297 303 308 313 317 321 322 323
271 270 271 270 268 268 266 263 261 259 258 256 254 252 250 247 244 242 241 241 241 241 242 243 243 244 246 248 252 255 258 262 267 271 277 284 290 295 301 306 310 314 316 318
272 270 269 268 267 266 265 263 261 259 258 256 255 253 251 248 245 243 243 242 242 243 243 243 243 244 246 248 251 254 257 261 264 268 273 279 284 290 295 300 304 308 311 312
274 271 268 266 265 264 263 262 260 258 257 256 254 253 252 249 247 244 243 243 243 243 244 244 244 245 246 248 250 253 256 259 263 266 270 275 281 286 290 295 299 303 306 308
274 271 268 266 264 263 262 260 259 257 256 255 253 252 251 250 249 246 245 244 244 245 244 245 245 246 247 248 250 252 255 258 261 265 268 273 277 282 287 291 295 298 301 304
275 273 270 267 264 262 261 259 258 256 255 253 252 251 250 249 249 248 247 246 245 245 245 244 244 245 246 248 250 252 254 257 260 263 267 271 275 279 283 287 291 295 298 301
274 273 271 269 266 264 261 259 257 256 254 252 251 249 249 248 248 247 247 246 245 244 244 245 245 245 246 248 250 252 254 256 259 262 266 270 274 277 281 285 288 292 295 298
276 274 272 271 269 266 264 260 257 255 253 251 249 248 247 247 246 246 246 245 245 244 244 244 245 246 246 247 249 251 253 255 259 262 265 269 272 276 280 283 287 290 293 296
277 276 274 273 270 268 265 262 259 256 253 251 249 247 246 245 244 244 244 245 245 245 245 244 244 245 246 247 248 250 252 255 258 261 264 268 271 275 279 282 286 289 293 296
278 277 275 273 272 269 266 264 261 257 254 251 249 247 245 244 243 241 241 242 243 242 243 243 243 244 245 247 248 250 252 255 257 261 264 267 271 275 279 282 286 289 292 295
279 278 277 274 272 269 267 265 262 258 255 252 249 247 245 242 242 241 239 239 240 240 241 242 243 244 245 247 248 250 253 255 258 261 264 268 271 275 279 282 285 288 292 294
280 279 277 275 272 269 266 264 261 259 256 253 250 247 245 242 241 240 238 237 237 238 239 240 242 243 244 246 247 250 252 255 258 261 265 268 272 275 278 282 285 288 291 294
279 278 277 275 273 271 267 264 261 258 255 253 251 248 245 243 241 240 238 236 235 236 237 238 239 241 243 245 247 249 252 255 258 262 265 269 272 275 278 282 285 288 291 293
279 278 277 276 274 273 269 266 263 260 257 255 253 249 246 243 241 239 238 236 234 234 235 236 238 239 241 244 247 249 252 255 259 262 265 268 272 275 278 282 285 288 291 293
279 278 276 275 273 272 270 268 266 263 260 258 255 251 248 244 242 239 237 236 233 232 233 234 236 238 240 243 246 249 252 255 258 261 265 268 272 275 279 282 285 288 290 292
277 276 276 275 273 273 270 268 267 265 262 260 256 252 249 245 242 240 236 234 233 232 232 233 235 236 239 242 245 248 252 255 258 261 265 268 272 275 279 282 285 288 290 292
276 276 276 276 275 274 271 268 267 267 265 262 257 253 249 245 242 240 236 233 232 232 231 231 233 235 237 240 244 248 252 255 259 262 265 269 272 276 279 282 285 288 290 291
277 276 276 276 276 275 271 268 266 266 265 262 256 251 248 246 243 240 237 233 231 231 230 230 231 234 237 240 244 248 251 255 258 262 265 268 272 275 279 281 284 287 289 290
277 277 277 277 276 274 271 268 265 264 263 260 255 250 246 244 241 238 236 232 229 228 228 229 231 233 236 239 243 247 251 254 258 262 266 269 273 276 279 281 284 286 287 288
278 277 277 276 273 272 270 268 264 262 259 257 252 247 242 239 237 236 233 229 226 227 228 229 232 235 237 240 244 247 251 255 259 262 265 269 272 275 277 280 282 284 286 287
Height
5812 5811 5810 5810 5810 5809 5809 5809 5809 5809 5809 5809 5808 5807 5808 5809 5809 5811 5812 5813 5814 5816 5817 5817 5818 5818 5818 5817 5816 5815 5814 5812 5810 5808 5805 5803 5801 5798 5796 5793 5791 5789 5787 5785
5807 5806 5805 5805 5805 5804 5803 5803 5803 5803 5804 5803 5802 5803 5804 5804 5805 5806 5808 5809 5810 5812 5813 5814 5814 5815 5815 5814 5814 5813 5811 5810 5808 5806 5804 5802 5799 5797 5795 5792 5790 5787 5785 5783
5803 5801 5800 5801 5801 5799 5798 5798 5797 5797 5799 5797 5797 5798 5799 5800 5801 5802 5803 5805 5806 5808 5809 5810 5811 5811 5811 5811 5811 5810 5809 5808 5806 5804 5802 5800 5798 5796 5793 5791 5788 5786 5783 5781
5797 5797 5795 5798 5795 5793 5792 5792 5791 5791 5791 5791 5791 5793 5794 5795 5796 5797 5798 5800 5801 5803 5804 5806 5806 5807 5807 5807 5807 5807 5806 5805 5803 5802 5800 5798 5796 5794 5791 5789 5786 5784 5781 5779
5791 5789 5789 5790 5788 5787 5786 5786 5784 5784 5785 5786 5786 5788 5789 5790 5790 5792 5793 5795 5796 5798 5799 5801 5802 5802 5803 5803 5803 5803 5802 5801 5800 5799 5797 5796 5794 5791 5789 5787 5784 5782 5779 5776
5783 5782 5782 5784 5782 5780 5781 5780 5779 5778 5779 5780 5781 5783 5784 5783 5785 5786 5788 5789 5791 5792 5794 5795 5796 5797 5798 5798 5798 5798 5798 5797 5796 5795 5794 5792 5790 5788 5786 5784 5782 5779 5777 5774
5776 5774 5774 5774 5773 5774 5775 5774 5772 5772 5772 5773 5774 5776 5777 5777 5779 5780 5782 5783 5785 5786 5788 5789 5790 5792 5792 5793 5793 5793 5793 5793 5792 5791 5790 5788 5787 5785 5783 5781 5778 5776 5774 5771
5767 5766 5767 5764 5765 5765 5765 5765 5765 5765 5765 5766 5767 5768 5769 5770 5772 5773 5775 5776 5778 5779 5781 5783 5784 5785 5786 5787 5787 5787 5787 5787 5787 5786 5785 5784 5782 5781 5779 5777 5775 5772 5770 5768
5758 5758 5756 5754 5754 5754 5755 5756 5756 5757 5757 5758 5759 5760 5761 5762 5764 5765 5767 5769 5770 5772 5773 5775 5776 5778 5779 5780 5780 5781 5781 5781 5781 5780 5780 5779 5777 5776 5774 5772 5770 5768 5766 5763
5745 5746 5745 5743 5742 5743 5743 5745 5746 5747 5748 5748 5749 5751 5752 5753 5755 5757 5758 5760 5762 5763 5765 5767 5768 5770 5771 5772 5773 5774 5774 5774 5774 5774 5773 5772 5771 5770 5769 5767 5765 5763 5761 5758
5733 5734 5732 5731 5730 5730 5731 5732 5734 5735 5736 5737 5739 5740 5742 5743 5745 5747 5749 5751 5753 5754 5756 5758 5759 5761 5763 5764 5765 5766 5766 5767 5767 5767 5766 5766 5765 5764 5762 5761 5759 5757 5755 5752
5719 5719 5718 5718 5717 5716 5717 5718 5720 5722 5724 5725 5726 5729 5730 5732 5734 5736 5738 5740 5742 5745 5746 5748 5750 5752 5753 5755 5756 5757 5758 5758 5759 5759 5759 5758 5757 5756 5755 5754 5752 5750 5748 5746
5703 5702 5702 5702 5702 5701 5702 5703 5705 5706 5709 5711 5713 5715 5717 5720 5722 5725 5727 5729 5731 5734 5736 5737 5739 5741 5743 5745 5746 5748 5749 5749 5750 5750 5750 5750 5749 5748 5747 5746 5744 5743 5740 5738
5686 5685 5685 5685 5684 5685 5685 5687 5688 5690 5692 5695 5698 5700 5703 5706 5709 5712 5714 5717 5719 5721 5724 5726 5728 5731 5733 5735 5736 5738 5739 5740 5740 5741 5741 5741 5740 5740 5739 5738 5736 5735 5733 5730
5668 5667 5667 5667 5667 5667 5667 5669 5671 5673 5675 5678 5681 5684 5687 5691 5694 5698 5701 5703 5706 5709 5712 5714 5717 5720 5722 5724 5725 5727 5728 5730 5730 5731 5731 5731 5731 5730 5729 5728 5727 5726 5724 5721
5649 5648 5647 5647 5648 5648 5648 5650 5651 5654 5656 5659 5662 5665 5669 5673 5678 5682 5686 5689 5693 5696 5699 5702 5705 5708 5710 5712 5714 5716 5717 5719 5720 5721 5721 5721 5721 5720 5719 5718 5717 5716 5714 5712
5631 5629 5628 5628 5628 5628 5629 5630 5632 5634 5636 5639 5643 5646 5650 5655 5660 5665 5670 5674 5678 5681 5685 5688 5691 5694 5697 5700 5702 5704 5706 5707 5709 5710 5710 5710 5710 5710 5709 5708 5707 5705 5703 5701
5612 5611 5610 5609 5609 5609 5610 5610 5612 5614 5616 5619 5623 5626 5630 5635 5640 5646 5651 5656 5661 5666 5670 5674 5678 5681 5684 5687 5690 5692 5694 5696 5697 5698 5699 5699 5699 5699 5698 5697 5696 5694 5692 5690
5595 5593 5592 5591 5590 5590 5591 5592 5593 5595 5597 5599 5602 5607 5611 5616 5621 5626 5632 5638 5644 5650 5656 5660 5664 5667 5671 5674 5677 5680 5682 5684 5685 5686 5687 5687 5687 5687 5686 5685 5684 5682 5680 5678
5578 5576 5575 5574 5573 5572 5573 5574 5575 5576 5578 5580 5583 5587 5592 5596 5601 5607 5613 5620 5627 5634 5639 5643 5648 5652 5656 5660 5663 5666 5669 5671 5672 5674 5674 5675 5675 5675 5674 5673 5672 5670 5668 5666
5562 5560 5559 5558 5557 5556 5556 5556 5557 5559 5561 5563 5565 5568 5573 5577 5582 5587 5594 5601 5609 5615 5621 5627 5632 5637 5642 5646 5649 5652 5655 5657 5659 5660 5661 5662 5662 5662 5662 5661 5659 5658 5656 5653
5547 5545 5544 5543 5542 5542 5541 5541 5541 5543 5544 5546 5548 5551 5555 5559 5564 5569 5575 5583 5590 5596 5603 5610 5616 5622 5627 5631 5635 5638 5641 5643 5645 5647 5648 5649 5649 5649 5649 5648 5646 5644 5642 5640
5532 5531 5530 5529 5528 5527 5527 5527 5527 5528 5529 5531 5533 5535 5539 5542 5547 5552 5558 5565 5572 5579 5586 5593 5600 5606 5611 5615 5620 5623 5626 5629 5631 5633 5634 5635 5635 5635 5635 5634 5633 5631 5629 5626
5518 5517 5516 5515 5514 5514 5514 5514 5514 5514 5515 5516 5518 5521 5523 5527 5531 5536 5542 5548 5555 5562 5569 5577 5584 5590 5595 5600 5604 5608 5612 5614 5617 5618 5620 5621 5621 5621 5621 5620 5619 5617 5615 5612
5505 5504 5503 5502 5502 5501 5501 5501 5501 5502 5502 5503 5505 5507 5510 5513 5517 5522 5527 5533 5539 5546 5553 5560 5567 5573 5579 5585 5589 5593 5597 5600 5602 5604 5606 5606 5607 5607 5606 5606 5604 5603 5601 5598
5493 5492 5491 5490 5489 5489 5488 5488 5489 5490 5490 5491 5493 5494 5497 5501 5504 5508 5513 5519 5525 5532 5538 5545 5552 5558 5564 5570 5575 5579 5582 5585 5587 5590 5591 5592 5592 5592 5592 5591 5590 5588 5586 5584
5481 5480 5479 5479 5478 5477 5477 5477 5478 5479 5479 5480 5482 5484 5486 5490 5493 5497 5501 5506 5512 5519 5525 5532 5538 5544 5550 5555 5560 5564 5567 5570 5573 5575 5576 5577 5578 5578 5578 5577 5576 5574 5573 5571